Regional Weather Roundup
Issued by NWS

Home | Current Version | Previous Version | Text Only | Print | Product List | Glossary Off
Versions: 1 2 3 4 5 6 7 8 9 10 11 12 13 14 15 16 17 18 19 20 21 22 23 24 25 26 27

000
ASUS45 KBOU 282207
RWRCO

WEATHER ROUNDUP FOR COLORADO
NATIONAL WEATHER SERVICE DENVER/BOULDER CO
400 PM MDT FRI APR 28 2017

NOTE: "FAIR" INDICATES FEW OR NO CLOUDS BELOW 12000 FEET WITH NO
SIGNIFICANT WEATHER AND/OR OBSTRUCTIONS TO VISIBILITY.

COZ001>005-013-030-031-282300-
...NORTHWEST COLORADO...

CITY           SKY/WX    TMP DP  RH WIND       PRES   REMARKS
CRAIG          FAIR      42  29  59 N14       29.79S
HAYDEN         PTSUNNY   43  23  45 W9        29.77S
MEEKER         FLURRIES  35  27  72 SE14      29.79R WCI  26
MOUNT WERNER   NOT AVBL
STEAMBOAT SPGS PTSUNNY   41  22  47 SW9       29.76R
WALDEN           N/A     32  21  64 N6        29.79R WCI  26
$$

COZ006>008-011-282300-
...WEST CENTRAL VALLEYS...

CITY           SKY/WX    TMP DP  RH WIND       PRES   REMARKS
GRAND JUNCTION FAIR      53  12  19 NW15G24   29.74S
MONTROSE       CLOUDY    46  15  28 NW17      29.75R
EAGLE          MOSUNNY   39  18  41 S10       29.77S
RIFLE          CLOUDY    44  22  41 E3        29.78S
DELTA          CLOUDY    52  19  27 W12G24    29.74S
NUCLA          CLOUDY    39  27  60 S12       29.80F
$$

COZ017>023-064>068-282300-
...SOUTHWEST COLORADO...

CITY           SKY/WX    TMP DP  RH WIND       PRES   REMARKS
DURANGO        LGT SNOW  33  25  72 SW8G26    29.75R VSB 1   WCI  26
CORTEZ         FAIR      42  28  57 N18G24    29.77R
PAGOSA SPRINGS LGT SNOW  32  28  83 N8G16     29.75R WCI  25
TELLURIDE      LGT SNOW  28  20  72 W6        29.77S WCI  22
WOLF CREEK PAS SNOW      14  14 100 SW12G17   29.79R VSB 1/4 WCI   0
$$

COZ009-010-012-014-032>034-037-058>063-282300-
...CENTRAL COLORADO...

CITY           SKY/WX    TMP DP  RH WIND       PRES   REMARKS
ASPEN          PTSUNNY   36  19  50 VRB3      29.74R
BUENA VISTA    CLOUDY    38  12  33 NW15      29.71R
COPPER MTN     LGT SNOW  21  14  73 NW3       29.76S VSB 3/4
BERTHOUD PASS  LGT SNOW  12   1  62 E9G20     29.77R VSB 3/4 WCI   0
COTTONWOOD PAS LGT SNOW  32  12  43 W5        29.74R WCI  27
GUNNISON       FAIR      38  13  35 CALM      29.72S
KREMMLING      PTSUNNY   46  19  34 W14       29.75S
LEADVILLE      PTSUNNY   26  18  71 NE8       29.73F WCI  18
MONARCH PASS   CLOUDY    19  12  73 W12       29.84F WCI   7
SALIDA         CLOUDY    40  17  39 SE6       29.79R
SUNLIGHT       CLOUDY    21  18  86 W5        29.80S FOG     WCI  15
WILKERSON PASS LGT SNOW  23  14  68 E12G20    29.78R VSB 1   WCI  12
$$

COZ069>075-282300-
...SAN LUIS VALLEY/SANGRE DE CRISTO MOUNTAINS...

CITY           SKY/WX    TMP DP  RH WIND       PRES   REMARKS
ALAMOSA        CLOUDY    44  17  33 NW20G30   29.65R
LA VETA PASS   CLOUDY    36  18  48 S10G20    29.82F
SAGUACHE       FLURRIES  34  27  75 N18       29.72R WCI  23
$$

COZ035-036-038>040-282300-
...NORTHERN COLORADO FRONT RANGE...

CITY           SKY/WX    TMP DP  RH WIND       PRES   REMARKS
DENVER INTL AP PTSUNNY   40  32  73 N28G36    29.77R
DMNS CITY PARK   N/A     44  31  60 NE22      29.77R
AURORA         CLOUDY    41  32  71 N28G33    29.76R
FRONT RANGE AP NOT AVBL
ERIE MUNI ARPT FAIR      42  33  69 NE23      29.79R
BOULDER MUN AP FAIR      45  32  61 N15       29.78R
CENTENNIAL     CLOUDY    47  18  31 S12       29.74R
BROOMFIELD     PTSUNNY   45  30  57 N22       29.78R
FORT COLLINS   MIX PCPN  34  32  93 NE9       29.85R FOG     WCI  26
LONGMONT       FAIR      48  36  63 NE22      29.82R HAZE
$$

COZ041-046-047-076>085-087-088-282300-
...PIKES PEAK/PALMER DIVIDE AND SOUTHERN FOOTHILLS...

CITY           SKY/WX    TMP DP  RH WIND       PRES   REMARKS
COLO. SPRINGS  CLOUDY    44  26  49 NE10      29.74R
A. F. ACADEMY  CLOUDY    43  23  46 SE12      29.73R
SCHRIEVER AFB  PTSUNNY   43  26  50 NE20      29.73R
ELLICOTT       PTSUNNY  N/A N/A N/A VRB7G28   29.70R
FALCON         CLOUDY    41  22  45 NE7       29.75R
FORT CARSON    LGT RAIN  44  27  52 NW12      29.73R
LIMON          PTSUNNY   43  36  76 NE28G37   29.72R
MONUMENT HILL  CLOUDY    41  21  45 SE6       29.75R
TRINIDAD       FAIR      55  28  35 S20G26    29.64F
$$

COZ042>045-048>051-090-091-282300-
...NORTHEAST COLORADO...

CITY           SKY/WX    TMP DP  RH WIND       PRES   REMARKS
GREELEY ARPT   LGT RAIN  37  34  87 NE14G24   29.84R
AKRON          CLOUDY    35  33  92 E22G28    29.82R WCI  23
BURLINGTON     NOT AVBL
WRAY           NOT AVBL
STERLING       DRIZZLE   36  34  93 E15G28    29.86R
HOLYOKE        CLOUDY    37  36  93 NE22      29.89R
FORT MORGAN    CLOUDY    39  33  78 NE20G26   29.85R
$$

COZ086-089-092>099-282300-
...SOUTHEAST COLORADO...

CITY           SKY/WX    TMP DP  RH WIND       PRES   REMARKS
PUEBLO         FAIR      57  22  25 SE15G25   29.64S
LA JUNTA       FAIR      60  29  30 E13       29.65F
LAMAR          FAIR      57  34  41 SE18G24   29.68R
SPRINGFIELD      N/A     48  39  71 S15       29.72F
$$




USA.gov is the U.S. government's official web portal to all federal, state and local government web resources and services.